Retour au catalogue

STARLINK-4799

ActifCommunicationsVLEO
NORAD 53860·PAYLOAD·🇺🇸 United States

Lancé Sep 19, 2022 depuis Cape Canaveral Space Force Station

Loading…

Prochains Passages (prochaines 24 heures)

TLE

FraisSource: CelesTrak SupGP

Époque: Sep 14, 2026, 21:14 UTC

1 53860C 22114AU  26257.88520833 -.00029080  00000+0 -93507-3 0  2575
2 53860  53.1570 144.8047 0001416  91.1968  48.7640 15.31719011    18

Suivez STARLINK-4799 en temps réel avec AllMySat

Download on the App Store